[[{"header":{"parameterUnit":"m.s-1","parameterCategory":1,"la1":30.2992,"la2":30.254,"lo1":-89.0895,"lo2":-89.0443,"dy":0.0025,"dx":0.0025,"nx":19,"ny":19,"refTime":"2026-05-18T03:00:00:Z","depth":0,"parameterNumber":2,"parameterNumberName":"U-component_of_WINDS"},"data":[0,0,0,-4.4226,-4.4228,-4.4306,-4.4307,-4.4429,-4.443,0,0,0,0,0,0,0,0,0,0,0,-4.4217,-4.4219,-4.4226,-4.4229,-4.4306,-4.4307,-4.4429,-4.443,0,0,0,0,0,0,0,0,0,0,0,-4.4217,-4.4218,-4.422,-4.4229,-4.4306,-4.4307,-4.4428,-4.4361,0,0,0,0,0,0,0,0,0,0,-4.4282,-4.4287,-4.4218,-4.422,-4.4229,-4.4306,-4.4307,-4.4358,-4.4366,-4.4403,0,-4.4441,0,-4.4438,-4.444,-4.444,0,0,0,-4.4218,-4.4281,-4.4289,-4.422,-4.423,-4.4306,-4.4268,-4.4362,-4.4371,-4.4414,-4.4443,-4.4447,-4.444,-4.4441,-4.4442,-4.4698,-4.4699,0,0,-4.4213,-4.4239,-4.4283,-4.4296,-4.4286,-4.4266,-4.4271,-4.4367,-4.44,-4.4443,-4.4449,-4.4442,-4.4442,-4.4443,-4.4696,-4.4698,0,0,0,-4.4208,-4.4236,-4.4242,-4.4291,-4.4304,-4.4268,-4.4274,-4.4395,-4.4395,-4.445,-4.4443,-4.4443,-4.4444,-4.4694,-4.4697,-4.4805,0,0,0,-4.4205,-4.4233,-4.424,-4.4256,-4.4302,-4.4351,-4.4301,-4.4388,-4.4398,-4.4443,-4.4443,-4.4446,-4.4692,-4.4696,-4.4798,-4.4852,0,0,0,-4.4207,-4.4233,-4.4249,-4.4258,-4.4292,-4.4348,-4.4353,-4.439,-4.4395,-4.4441,-4.4446,-4.4691,-4.4695,-4.4792,-4.4841,-4.4926,0,0,0,-4.4216,-4.4344,-4.4251,-4.4391,-4.4292,-4.4416,-4.4352,-4.4443,-4.4495,-4.4443,-4.4692,-4.4696,-4.479,-4.4835,-4.492,-4.5002,-4.5039,0,0,-4.4391,-4.4366,-4.4446,-4.4365,-4.4512,-4.4402,-4.4564,-4.4587,-4.4568,-4.4656,-4.4661,-4.48,-4.484,-4.4925,-4.5238,-4.5267,0,0,0,-4.4509,-4.4567,-4.4601,-4.4652,-4.4674,-4.4697,-4.4694,-4.4703,-4.4776,-4.4619,-4.4854,-4.4877,-4.4925,-4.4963,-4.4988,-4.5028,-4.4715,-4.4715,-4.4715,-4.4791,-4.4761,-4.4892,-4.4872,-4.4923,-4.4919,-4.4957,-4.4968,-4.4922,-4.4979,-4.5004,-4.5198,-4.5243,-4.5262,-4.5304,-4.5046,-4.5046,-4.5047,-4.5047,-4.5043,-4.512,-4.5058,-4.5163,-4.5131,-4.5218,-4.522,-4.5185,-4.5261,-4.5176,-4.5217,-4.5125,-4.5295,-4.533,-4.5055,-4.5053,-4.5052,-4.5052,-4.5051,-4.5223,-4.5255,-4.5265,-4.5337,-4.5396,-4.5372,-4.5449,-4.5417,-4.5387,-4.5428,-4.5451,-4.5449,-4.5443,-4.5442,-4.5442,-4.5443,-4.5444,-4.5444,-4.5445,-4.5405,-4.5413,-4.5482,-4.5518,-4.5547,-4.5582,-4.5581,-4.5609,-4.5632,-4.5602,-4.5602,-4.5551,-4.5318,-4.526,-4.5455,-4.5453,-4.5452,-4.5451,-4.545,-4.567,-4.5605,-4.5712,-4.5742,-4.5782,-4.5843,-4.5802,-4.5863,-4.5881,-4.5921,-4.5862,-4.5695,-4.5666,-4.5646,-4.5597,-4.5868,-4.5868,-4.5868,-4.5868,-4.5821,-4.5804,-4.5906,-4.5957,-4.6002,-4.5977,-4.6098,-4.61,-4.6091,-4.61,-4.6057,-4.599,-4.5971,-4.5954,-4.5927,-4.5881,-4.6218,-4.6218,-4.6218,-4.5982,-4.5968,-4.6078,-4.6069,-4.6098,-4.6125,-4.6238,-4.6298,-4.6274,-4.6232,-4.6107,-4.6093,-4.5984,-4.5951,-4.5903,-4.5862,-4.5777,0,0]},{"header":{"parameterUnit":"m.s-1","parameterCategory":1,"la1":30.2992,"la2":30.254,"lo1":-89.0895,"lo2":-89.0443,"dy":0.0025,"dx":0.0025,"nx":19,"ny":19,"refTime":"2026-05-18T03:00:00:Z","depth":0,"parameterNumber":3,"parameterNumberName":"V-component_of_WINDS"},"data":[0,0,0,0.7286,0.7286,0.7283,0.7283,0.7282,0.7282,0,0,0,0,0,0,0,0,0,0,0,0.7291,0.7291,0.7286,0.7286,0.7283,0.7283,0.7282,0.7282,0,0,0,0,0,0,0,0,0,0,0,0.7291,0.7291,0.7291,0.7286,0.7283,0.7283,0.7282,0.7283,0,0,0,0,0,0,0,0,0,0,0.7286,0.7293,0.7291,0.7291,0.7286,0.7283,0.7283,0.7283,0.7283,0.7286,0,0.729,0,0.7287,0.7283,0.7283,0,0,0,0.7283,0.7294,0.729,0.7291,0.7286,0.7283,0.7283,0.7283,0.7283,0.7286,0.729,0.729,0.7287,0.7283,0.7283,0.7313,0.7313,0,0,0.7284,0.7291,0.729,0.729,0.7292,0.7284,0.7283,0.7283,0.7288,0.729,0.729,0.7287,0.7283,0.7283,0.7312,0.7313,0,0,0,0.7286,0.7292,0.7288,0.729,0.7289,0.7284,0.7283,0.7288,0.7286,0.729,0.7287,0.7283,0.7283,0.7312,0.7312,0.7335,0,0,0,0.7286,0.7293,0.7288,0.7293,0.7289,0.7288,0.7288,0.7286,0.7286,0.7287,0.7283,0.7283,0.7312,0.7312,0.7333,0.7343,0,0,0,0.729,0.7294,0.7294,0.7293,0.7292,0.7288,0.7286,0.7286,0.7284,0.7283,0.7283,0.7311,0.7312,0.7332,0.7341,0.7354,0,0,0,0.7295,0.7312,0.7295,0.7313,0.7292,0.7302,0.7286,0.7293,0.7295,0.7283,0.7312,0.7312,0.7332,0.734,0.7353,0.7367,0.7373,0,0,0.7321,0.7316,0.7326,0.731,0.7326,0.7302,0.7321,0.7314,0.7306,0.7311,0.7311,0.7334,0.7341,0.7354,0.7406,0.7412,0,0,0,0.7337,0.7344,0.7346,0.7349,0.7346,0.7344,0.7334,0.7332,0.7336,0.731,0.7341,0.7346,0.7353,0.7359,0.7364,0.737,0.7315,0.7315,0.7315,0.7383,0.7374,0.739,0.7381,0.7384,0.7375,0.7377,0.7373,0.736,0.7368,0.7369,0.7402,0.741,0.7413,0.742,0.7376,0.7376,0.7376,0.7376,0.7421,0.743,0.7416,0.7427,0.7417,0.7425,0.7418,0.741,0.7416,0.74,0.7406,0.7389,0.7419,0.7425,0.7377,0.7377,0.7377,0.7377,0.7377,0.745,0.7453,0.7452,0.7457,0.7462,0.7452,0.746,0.745,0.744,0.7446,0.7447,0.7447,0.7445,0.7447,0.7447,0.7448,0.7448,0.7448,0.7448,0.7482,0.748,0.7488,0.7488,0.749,0.7491,0.7483,0.7485,0.7483,0.7476,0.7476,0.7464,0.7424,0.7415,0.745,0.7449,0.7449,0.7449,0.7449,0.7524,0.7513,0.7526,0.7528,0.7528,0.7534,0.7523,0.7526,0.7526,0.753,0.7518,0.749,0.7483,0.748,0.7472,0.7519,0.7519,0.7519,0.7519,0.7549,0.7546,0.7558,0.7562,0.7565,0.7556,0.7571,0.7567,0.7559,0.7559,0.755,0.7539,0.7536,0.7531,0.7526,0.7519,0.7577,0.7577,0.7577,0.7575,0.7571,0.7586,0.7581,0.758,0.758,0.7595,0.76,0.759,0.758,0.7558,0.7556,0.7537,0.7532,0.7521,0.7514,0.75,0,0]}]]